^^
Station Historical Data
Daily Summary for April 12, 2021 Units:  English    Metric   Both
Daily Weekly Monthly Yearly
  High: Low: Average:
Temperature: 56 °F 47.6 °F 52.4 °F
Dew Point: 53.1 °F 45.2 °F 49.3 °F
Humidity: 93% 83% 89%
Wind Speed: 4mph 0mph 1.4mph
Wind Gust: 5mph - -
Wind- - SSW
Pressure: 29.80 in 29.51 in -
Precipitation: 0.29 in    
 
 
Tabular Data for April 12, 2021
Time Temperature Dew Point Pressure Wind Wind Speed Wind Gust Humidity Rainfall Rate (Hourly) solar
00:00 52.8 °F 48.4 °F 29.51 in SE 1 mph 1 mph 85% 0.00 in 0 W/m2
00:05 52.9 °F 48.5 °F 29.51 in Calm   1 mph 85% 0.00 in 0 W/m2
00:10 53 °F 48.6 °F 29.51 in Calm     85% 0.00 in 0 W/m2
00:15 53 °F 48.6 °F 29.51 in Calm     85% 0.00 in 0 W/m2
00:20 53 °F 48.3 °F 29.51 in Calm     84% 0.00 in 0 W/m2
00:25 53 °F 48.3 °F 29.51 in Calm     84% 0.00 in 0 W/m2
00:30 53.1 °F 48.4 °F 29.51 in Calm     84% 0.00 in 0 W/m2
00:35 53.1 °F 48.4 °F 29.51 in Calm     84% 0.00 in 0 W/m2
00:40 53.1 °F 48.1 °F 29.51 in Calm   1 mph 83% 0.00 in 0 W/m2
00:45 53.1 °F 48.4 °F 29.51 in Calm   1 mph 84% 0.00 in 0 W/m2
00:50 53.1 °F 48.4 °F 29.52 in Calm     84% 0.00 in 0 W/m2
00:55 53.1 °F 48.4 °F 29.52 in Calm     84% 0.00 in 0 W/m2
01:00 53 °F 48.3 °F 29.52 in Calm     84% 0.00 in 0 W/m2
01:05 52.9 °F 48.2 °F 29.52 in Calm     84% 0.00 in 0 W/m2
01:10 52.9 °F 48.2 °F 29.52 in Calm   1 mph 84% 0.00 in 0 W/m2
01:15 52.9 °F 48.2 °F 29.52 in SE 1 mph 1 mph 84% 0.00 in 0 W/m2
01:20 52.7 °F 48 °F 29.52 in SE 1 mph 2 mph 84% 0.00 in 0 W/m2
01:25 52.6 °F 48.2 °F 29.53 in ESE 1 mph 2 mph 85% 0.00 in 0 W/m2
01:30 52.4 °F 48 °F 29.52 in ESE 1 mph 1 mph 85% 0.00 in 0 W/m2
01:35 52.4 °F 48 °F 29.53 in ESE 1 mph 1 mph 85% 0.00 in 0 W/m2
01:40 52.3 °F 48.2 °F 29.53 in ESE 1 mph 1 mph 86% 0.00 in 0 W/m2
01:45 52.3 °F 48.2 °F 29.53 in ESE 1 mph 1 mph 86% 0.00 in 0 W/m2
01:50 52.1 °F 48 °F 29.53 in ESE 1 mph 1 mph 86% 0.00 in 0 W/m2
01:55 52 °F 47.9 °F 29.53 in Calm   1 mph 86% 0.00 in 0 W/m2
02:00 51.9 °F 47.8 °F 29.53 in ESE 1 mph 1 mph 86% 0.00 in 0 W/m2
02:05 51.9 °F 47.8 °F 29.53 in ESE 2 mph 4 mph 86% 0.00 in 0 W/m2
02:10 52 °F 48.3 °F 29.53 in ESE 3 mph 3 mph 87% 0.00 in 0 W/m2
02:15 52.1 °F 48.3 °F 29.53 in SE 3 mph 3 mph 87% 0.00 in 0 W/m2
02:20 52.2 °F 48.4 °F 29.53 in SE 4 mph 4 mph 87% 0.00 in 0 W/m2
02:25 52.2 °F 48.4 °F 29.53 in SE 4 mph 4 mph 87% 0.00 in 0 W/m2
02:30 52.2 °F 48.4 °F 29.53 in ESE 3 mph 3 mph 87% 0.00 in 0 W/m2
02:35 52.2 °F 48.4 °F 29.53 in ESE 3 mph 4 mph 87% 0.00 in 0 W/m2
02:40 52.2 °F 48.8 °F 29.53 in SE 3 mph 4 mph 88% 0.00 in 0 W/m2
02:45 52.2 °F 48.8 °F 29.53 in ESE 3 mph 4 mph 88% 0.00 in 0 W/m2
02:50 52.1 °F 48.7 °F 29.53 in SE 3 mph 3 mph 88% 0.00 in 0 W/m2
02:55 52.1 °F 48.7 °F 29.53 in SE 2 mph 3 mph 88% 0.08 in 0 W/m2
03:00 51.9 °F 48.5 °F 29.53 in SE 2 mph 2 mph 88% 0.08 in 0 W/m2
03:05 51.9 °F 48.5 °F 29.52 in ESE 1 mph 2 mph 88% 0.09 in 0 W/m2
03:10 51.8 °F 48.4 °F 29.53 in SSW 1 mph 1 mph 88% 0.06 in 0 W/m2
03:15 51.7 °F 48.3 °F 29.53 in SSW 1 mph 1 mph 88% 0.06 in 0 W/m2
03:20 51.6 °F 48.5 °F 29.53 in SSW 1 mph 1 mph 89% 0.06 in 0 W/m2
03:25 51.6 °F 48.5 °F 29.53 in WSW 1 mph 1 mph 89% 0.06 in 0 W/m2
03:30 51.6 °F 48.5 °F 29.53 in WSW 1 mph 1 mph 89% 0.06 in 0 W/m2
03:35 51.5 °F 48.4 °F 29.53 in SW 1 mph 1 mph 89% 0.04 in 0 W/m2
03:40 51.5 °F 48.4 °F 29.54 in SW 1 mph 1 mph 89% 0.04 in 0 W/m2
03:45 51.4 °F 48.3 °F 29.54 in SW 1 mph 1 mph 89% 0.07 in 0 W/m2
03:50 51.4 °F 48.3 °F 29.54 in Calm     89% 0.08 in 0 W/m2
03:55 51.3 °F 48.2 °F 29.54 in Calm   1 mph 89% 0.08 in 0 W/m2
04:00 51.3 °F 48.2 °F 29.54 in Calm     89% 0.09 in 0 W/m2
04:05 51.3 °F 48.2 °F 29.54 in Calm     89% 0.08 in 0 W/m2
04:10 51.2 °F 48.4 °F 29.54 in Calm     90% 0.08 in 0 W/m2
04:15 51.2 °F 48.4 °F 29.54 in Calm     90% 0.06 in 0 W/m2
04:20 51.2 °F 48.4 °F 29.54 in Calm     90% 0.06 in 0 W/m2
04:25 51.2 °F 48.4 °F 29.54 in Calm     90% 0.06 in 0 W/m2
04:30 51.2 °F 48.4 °F 29.54 in Calm     90% 0.05 in 0 W/m2
04:35 51.1 °F 48.3 °F 29.54 in Calm     90% 0.05 in 0 W/m2
04:40 51.1 °F 48.3 °F 29.54 in Calm     90% 0.05 in 0 W/m2
04:45 51.1 °F 48.3 °F 29.54 in Calm     90% 0.05 in 0 W/m2
04:50 51 °F 48.2 °F 29.54 in Calm     90% 0.05 in 0 W/m2
04:55 51.1 °F 48.3 °F 29.54 in Calm     90% 0.04 in 0 W/m2
05:00 51 °F 48.2 °F 29.54 in Calm     90% 0.00 in 0 W/m2
05:05 51 °F 48.2 °F 29.54 in Calm     90% 0.00 in 0 W/m2
05:10 50.9 °F 48.1 °F 29.54 in Calm     90% 0.00 in 0 W/m2
05:15 50.9 °F 48.1 °F 29.54 in Calm     90% 0.00 in 0 W/m2
05:20 50.8 °F 48 °F 29.54 in Calm     90% 0.00 in 0 W/m2
05:25 50.8 °F 48 °F 29.54 in Calm     90% 0.00 in 0 W/m2
05:30 50.7 °F 47.9 °F 29.54 in Calm     90% 0.00 in 0 W/m2
05:35 50.7 °F 47.9 °F 29.55 in Calm     90% 0.00 in 0 W/m2
05:40 50.6 °F 47.8 °F 29.55 in Calm     90% 0.00 in 0 W/m2
05:45 50.6 °F 47.8 °F 29.55 in Calm     90% 0.00 in 0 W/m2
05:50 50.6 °F 47.8 °F 29.55 in Calm     90% 0.00 in 0 W/m2
05:55 50.6 °F 47.8 °F 29.55 in Calm     90% 0.00 in 0 W/m2
06:00 50.6 °F 47.8 °F 29.55 in Calm     90% 0.00 in 0 W/m2
06:05 50.5 °F 47.7 °F 29.55 in Calm     90% 0.00 in 0 W/m2
06:10 50.5 °F 47.7 °F 29.55 in Calm     90% 0.00 in 0 W/m2
06:15 50.5 °F 47.7 °F 29.55 in Calm     90% 0.00 in 0 W/m2
06:20 50.5 °F 47.7 °F 29.55 in Calm     90% 0.00 in 0 W/m2
06:25 50.5 °F 47.7 °F 29.55 in Calm     90% 0.00 in 0 W/m2
06:30 50.5 °F 47.7 °F 29.55 in Calm     90% 0.00 in 0 W/m2
06:35 50.5 °F 48 °F 29.56 in Calm     91% 0.00 in 0 W/m2
06:40 50.4 °F 47.9 °F 29.56 in Calm     91% 0.00 in 0 W/m2
06:45 50.4 °F 47.9 °F 29.56 in Calm     91% 0.00 in 0 W/m2
06:50 50.4 °F 47.9 °F 29.57 in Calm   1 mph 91% 0.00 in 0 W/m2
06:55 50.4 °F 47.9 °F 29.57 in Calm   1 mph 91% 0.00 in 0 W/m2
07:00 50.4 °F 47.9 °F 29.57 in Calm     91% 0.00 in 0 W/m2
07:05 50.5 °F 48 °F 29.57 in Calm   1 mph 91% 0.00 in 0 W/m2
07:10 50.5 °F 48 °F 29.57 in Calm   1 mph 91% 0.00 in 0 W/m2
07:15 50.4 °F 47.9 °F 29.57 in Calm   1 mph 91% 0.00 in 5 W/m2
07:20 50.4 °F 47.9 °F 29.57 in SW 1 mph 1 mph 91% 0.00 in 5 W/m2
07:25 50.4 °F 47.9 °F 29.57 in Calm   1 mph 91% 0.00 in 7 W/m2
07:30 50.4 °F 47.9 °F 29.57 in Calm     91% 0.00 in 7 W/m2
07:35 50.4 °F 47.9 °F 29.57 in Calm     91% 0.00 in 9 W/m2
07:40 50.4 °F 47.9 °F 29.57 in Calm     91% 0.00 in 9 W/m2
07:45 50.3 °F 47.8 °F 29.58 in Calm     91% 0.00 in 7 W/m2
07:50 50.2 °F 47.7 °F 29.58 in NNE 1 mph 2 mph 91% 0.00 in 11 W/m2
07:55 49.9 °F 47.4 °F 29.58 in NNE 2 mph 3 mph 91% 0.00 in 11 W/m2
08:00 49.6 °F 47.1 °F 29.58 in North 2 mph 2 mph 91% 0.00 in 12 W/m2
08:05 49.3 °F 46.8 °F 29.59 in NE 2 mph 2 mph 91% 0.00 in 14 W/m2
08:10 49.1 °F 46.6 °F 29.59 in North 1 mph 1 mph 91% 0.00 in 16 W/m2
08:15 48.8 °F 46.3 °F 29.59 in North 2 mph 2 mph 91% 0.00 in 18 W/m2
08:20 48.6 °F 46.1 °F 29.59 in NNE 2 mph 2 mph 91% 0.00 in 19 W/m2
08:25 48.4 °F 45.9 °F 29.59 in NNE 2 mph 2 mph 91% 0.00 in 25 W/m2
08:30 48.2 °F 45.7 °F 29.59 in East 2 mph 2 mph 91% 0.00 in 26 W/m2
08:35 48.1 °F 45.6 °F 29.60 in NNE 1 mph 2 mph 91% 0.00 in 25 W/m2
08:40 47.9 °F 45.4 °F 29.60 in NE 2 mph 2 mph 91% 0.00 in 26 W/m2
08:45 47.8 °F 45.3 °F 29.60 in NE 1 mph 2 mph 91% 0.00 in 28 W/m2
08:50 47.8 °F 45.3 °F 29.60 in NE 1 mph 1 mph 91% 0.00 in 40 W/m2
08:55 47.8 °F 45.3 °F 29.60 in NE 2 mph 2 mph 91% 0.00 in 49 W/m2
09:00 47.7 °F 45.2 °F 29.60 in NE 1 mph 2 mph 91% 0.00 in 58 W/m2
09:05 47.8 °F 45.3 °F 29.60 in NE 1 mph 2 mph 91% 0.00 in 58 W/m2
09:10 47.8 °F 45.3 °F 29.60 in NE 1 mph 1 mph 91% 0.00 in 69 W/m2
09:15 47.9 °F 45.7 °F 29.60 in NE 1 mph 1 mph 92% 0.05 in 74 W/m2
09:20 47.9 °F 45.7 °F 29.60 in NE 1 mph 1 mph 92% 0.05 in 77 W/m2
09:25 48 °F 45.8 °F 29.60 in North 1 mph 1 mph 92% 0.07 in 79 W/m2
09:30 48 °F 45.8 °F 29.61 in NNE 1 mph 2 mph 92% 0.07 in 70 W/m2
09:35 48 °F 45.8 °F 29.61 in North 2 mph 3 mph 92% 0.05 in 58 W/m2
09:40 47.9 °F 45.7 °F 29.61 in NNW 2 mph 2 mph 92% 0.04 in 58 W/m2
09:45 47.9 °F 45.7 °F 29.61 in NNW 2 mph 2 mph 92% 0.00 in 58 W/m2
09:50 47.8 °F 45.6 °F 29.61 in NNW 2 mph 2 mph 92% 0.00 in 56 W/m2
09:55 47.8 °F 45.6 °F 29.62 in NNW 2 mph 2 mph 92% 0.00 in 56 W/m2
10:00 47.7 °F 45.5 °F 29.62 in North 2 mph 2 mph 92% 0.00 in 62 W/m2
10:05 47.7 °F 45.5 °F 29.62 in NNW 2 mph 2 mph 92% 0.00 in 63 W/m2
10:10 47.7 °F 45.5 °F 29.62 in NNW 2 mph 2 mph 92% 0.00 in 62 W/m2
10:15 47.6 °F 45.4 °F 29.62 in NNW 1 mph 2 mph 92% 0.00 in 74 W/m2
10:20 47.6 °F 45.4 °F 29.63 in NNW 2 mph 2 mph 92% 0.05 in 90 W/m2
10:25 47.7 °F 45.5 °F 29.63 in NNW 1 mph 2 mph 92% 0.05 in 107 W/m2
10:30 47.7 °F 45.5 °F 29.63 in NNW 1 mph 2 mph 92% 0.05 in 116 W/m2
10:35 47.8 °F 45.6 °F 29.63 in NNW 2 mph 2 mph 92% 0.04 in 141 W/m2
10:40 48 °F 45.8 °F 29.63 in NNW 2 mph 2 mph 92% 0.04 in 148 W/m2
10:45 48.1 °F 46.2 °F 29.63 in NNW 2 mph 2 mph 93% 0.07 in 153 W/m2
10:50 48.3 °F 46.4 °F 29.63 in NNW 1 mph 2 mph 93% 0.07 in 160 W/m2
11:10 49.1 °F 47.2 °F 29.63 in Calm     93% 0.05 in 209 W/m2
11:15 49.5 °F 47.6 °F 29.63 in Calm   1 mph 93% 0.05 in 221 W/m2
11:20 49.9 °F 48 °F 29.64 in Calm     93% 0.05 in 232 W/m2
11:25 50.1 °F 48.2 °F 29.63 in NNW 1 mph 1 mph 93% 0.00 in 287 W/m2
11:30 50.4 °F 48.5 °F 29.64 in Calm   1 mph 93% 0.00 in 322 W/m2
11:35 50.7 °F 48.7 °F 29.64 in NNW 1 mph 1 mph 93% 0.00 in 299 W/m2
11:40 51.2 °F 49.2 °F 29.64 in NW 1 mph 1 mph 93% 0.00 in 369 W/m2
11:45 51.9 °F 49.9 °F 29.63 in NNW 1 mph 2 mph 93% 0.00 in 432 W/m2
11:50 52.5 °F 50.5 °F 29.64 in NNW 2 mph 2 mph 93% 0.00 in 315 W/m2
11:55 52.7 °F 50.4 °F 29.64 in WNW 1 mph 2 mph 92% 0.00 in 366 W/m2
12:00 52.9 °F 50.6 °F 29.64 in NW 1 mph 2 mph 92% 0.00 in 374 W/m2
12:05 52.8 °F 50.2 °F 29.64 in NW 1 mph 2 mph 91% 0.00 in 338 W/m2
12:10 52.8 °F 50.2 °F 29.64 in NW 2 mph 2 mph 91% 0.00 in 339 W/m2
12:15 52.8 °F 50.2 °F 29.64 in WNW 3 mph 4 mph 91% 0.00 in 357 W/m2
12:20 52.9 °F 50.3 °F 29.64 in NW 3 mph 3 mph 91% 0.00 in 378 W/m2
12:25 52.6 °F 49.4 °F 29.64 in NNW 3 mph 3 mph 89% 0.00 in 691 W/m2
12:30 53.1 °F 49.9 °F 29.63 in NW 3 mph 4 mph 89% 0.00 in 700 W/m2
12:35 53.7 °F 50.8 °F 29.64 in WNW 3 mph 4 mph 90% 0.00 in 411 W/m2
12:40 53.7 °F 50.2 °F 29.64 in WNW 2 mph 2 mph 88% 0.00 in 420 W/m2
12:45 53.9 °F 50.1 °F 29.64 in WNW 2 mph 2 mph 87% 0.00 in 381 W/m2
12:50 54.3 °F 50.8 °F 29.64 in NW 2 mph 2 mph 88% 0.00 in 958 W/m2
12:55 55.1 °F 51.3 °F 29.64 in NW 2 mph 2 mph 87% 0.00 in 882 W/m2
13:00 55.1 °F 51.3 °F 29.64 in East 2 mph 2 mph 87% 0.00 in 471 W/m2
13:05 55.3 °F 52.1 °F 29.64 in NE 2 mph 2 mph 89% 0.00 in 652 W/m2
13:10 54.9 °F 50.8 °F 29.64 in East 2 mph 3 mph 86% 0.00 in 589 W/m2
13:15 54.6 °F 50.8 °F 29.64 in SW 2 mph 4 mph 87% 0.00 in 543 W/m2
13:20 54.4 °F 50.6 °F 29.64 in SW 3 mph 4 mph 87% 0.00 in 483 W/m2
13:25 54.5 °F 50.7 °F 29.64 in SW 3 mph 4 mph 87% 0.00 in 371 W/m2
13:30 54.4 °F 50.6 °F 29.64 in SSW 4 mph 4 mph 87% 0.00 in 369 W/m2
13:35 54.6 °F 50.8 °F 29.65 in SW 3 mph 4 mph 87% 0.00 in 323 W/m2
13:40 54.7 °F 50.9 °F 29.65 in SSW 3 mph 3 mph 87% 0.00 in 258 W/m2
13:45 54.7 °F 50.6 °F 29.65 in SW 3 mph 5 mph 86% 0.00 in 225 W/m2
13:50 54.5 °F 50.4 °F 29.65 in WSW 3 mph 3 mph 86% 0.00 in 200 W/m2
13:55 54.5 °F 50.4 °F 29.65 in SW 3 mph 3 mph 86% 0.00 in 204 W/m2
14:00 54.4 °F 50.3 °F 29.65 in West 3 mph 3 mph 86% 0.00 in 204 W/m2
14:05 54.3 °F 50.2 °F 29.65 in West 2 mph 3 mph 86% 0.00 in 197 W/m2
14:10 54.3 °F 50.2 °F 29.65 in WSW 2 mph 3 mph 86% 0.00 in 202 W/m2
14:15 54.3 °F 50.5 °F 29.65 in SW 2 mph 3 mph 87% 0.00 in 232 W/m2
14:20 54.3 °F 50.5 °F 29.65 in West 2 mph 2 mph 87% 0.00 in 221 W/m2
14:25 54.3 °F 50.5 °F 29.65 in WSW 2 mph 2 mph 87% 0.00 in 213 W/m2
14:30 54.4 °F 50.6 °F 29.66 in SW 2 mph 3 mph 87% 0.00 in 195 W/m2
14:35 54.4 °F 50.6 °F 29.65 in SW 3 mph 4 mph 87% 0.00 in 195 W/m2
14:40 54.4 °F 50.6 °F 29.65 in SW 2 mph 2 mph 87% 0.00 in 193 W/m2
14:45 54.4 °F 50.3 °F 29.66 in SW 2 mph 2 mph 86% 0.00 in 163 W/m2
14:50 54.4 °F 50.3 °F 29.66 in SW 1 mph 1 mph 86% 0.00 in 139 W/m2
14:55 54.4 °F 50.3 °F 29.66 in Calm   1 mph 86% 0.00 in 132 W/m2
15:00 54.4 °F 50.6 °F 29.66 in Calm     87% 0.00 in 127 W/m2
15:05 54.4 °F 50.6 °F 29.66 in Calm     87% 0.00 in 116 W/m2
15:10 54.5 °F 50.7 °F 29.66 in Calm     87% 0.00 in 109 W/m2
15:15 54.4 °F 50.6 °F 29.66 in Calm     87% 0.00 in 107 W/m2
15:20 54.4 °F 50.6 °F 29.66 in Calm     87% 0.00 in 98 W/m2
15:25 54.4 °F 50.6 °F 29.67 in Calm     87% 0.00 in 86 W/m2
15:30 54.4 °F 50.3 °F 29.67 in Calm     86% 0.00 in 88 W/m2
15:35 54.4 °F 50.6 °F 29.66 in Calm     87% 0.00 in 93 W/m2
15:40 54.5 °F 50.7 °F 29.67 in Calm   1 mph 87% 0.00 in 91 W/m2
15:45 54.5 °F 50.7 °F 29.67 in Calm   1 mph 87% 0.00 in 88 W/m2
15:50 54.5 °F 50.7 °F 29.67 in Calm     87% 0.00 in 70 W/m2
15:55 54.6 °F 50.8 °F 29.67 in SW 1 mph 1 mph 87% 0.00 in 49 W/m2
16:00 54.6 °F 50.8 °F 29.67 in Calm     87% 0.00 in 46 W/m2
16:05 54.6 °F 50.8 °F 29.67 in Calm     87% 0.00 in 42 W/m2
16:10 54.7 °F 50.9 °F 29.68 in Calm     87% 0.00 in 39 W/m2
16:15 54.4 °F 50.6 °F 29.68 in Calm     87% 0.00 in 35 W/m2
16:20 54.3 °F 50.5 °F 29.68 in NW 1 mph 2 mph 87% 0.00 in 35 W/m2
16:25 53.9 °F 49.8 °F 29.69 in North 2 mph 2 mph 86% 0.00 in 32 W/m2
16:30 53.6 °F 49.5 °F 29.69 in North 2 mph 2 mph 86% 0.00 in 30 W/m2
16:35 53.4 °F 49.6 °F 29.69 in NNE 2 mph 2 mph 87% 0.00 in 28 W/m2
16:40 53.3 °F 49.5 °F 29.69 in ENE 2 mph 2 mph 87% 0.00 in 32 W/m2
16:45 53 °F 49.2 °F 29.70 in ENE 2 mph 2 mph 87% 0.00 in 42 W/m2
16:50 52.9 °F 49.4 °F 29.70 in ENE 2 mph 2 mph 88% 0.00 in 51 W/m2
16:55 52.8 °F 49.3 °F 29.70 in ENE 1 mph 2 mph 88% 0.00 in 74 W/m2
17:00 52.9 °F 49.7 °F 29.70 in ENE 1 mph 1 mph 89% 0.00 in 98 W/m2
17:05 53.5 °F 50.9 °F 29.70 in SE 2 mph 3 mph 91% 0.00 in 102 W/m2
17:10 54.2 °F 51.6 °F 29.70 in SSE 3 mph 3 mph 91% 0.00 in 70 W/m2
17:15 54.5 °F 51.9 °F 29.71 in SE 3 mph 5 mph 91% 0.00 in 63 W/m2
17:20 54.5 °F 51.9 °F 29.71 in SE 3 mph 4 mph 91% 0.00 in 63 W/m2
17:25 54.7 °F 52.1 °F 29.71 in SE 3 mph 4 mph 91% 0.00 in 79 W/m2
17:30 54.9 °F 52.3 °F 29.71 in ESE 4 mph 4 mph 91% 0.00 in 102 W/m2
17:35 55 °F 52.4 °F 29.71 in SE 4 mph 4 mph 91% 0.00 in 135 W/m2
17:40 55 °F 52.4 °F 29.71 in SE 3 mph 3 mph 91% 0.00 in 141 W/m2
17:45 55.1 °F 52.5 °F 29.71 in SE 3 mph 4 mph 91% 0.00 in 123 W/m2
17:50 55.3 °F 52.7 °F 29.72 in SE 4 mph 4 mph 91% 0.00 in 79 W/m2
17:55 55.3 °F 52.7 °F 29.72 in SE 4 mph 4 mph 91% 0.00 in 46 W/m2
18:00 55.3 °F 52.7 °F 29.72 in SE 4 mph 4 mph 91% 0.00 in 32 W/m2
18:05 55.3 °F 52.7 °F 29.72 in SE 3 mph 4 mph 91% 0.00 in 30 W/m2
18:10 55.3 °F 53 °F 29.73 in SE 3 mph 4 mph 92% 0.00 in 23 W/m2
18:15 55.3 °F 53 °F 29.73 in SE 4 mph 4 mph 92% 0.00 in 26 W/m2
18:20 55.4 °F 53.1 °F 29.73 in SSE 3 mph 3 mph 92% 0.00 in 33 W/m2
18:25 55.3 °F 53 °F 29.73 in South 2 mph 4 mph 92% 0.00 in 32 W/m2
18:30 55.3 °F 53 °F 29.73 in South 3 mph 4 mph 92% 0.00 in 32 W/m2
18:35 55.3 °F 53 °F 29.74 in SSE 3 mph 5 mph 92% 0.00 in 30 W/m2
18:40 55.2 °F 52.9 °F 29.74 in SSE 3 mph 5 mph 92% 0.00 in 30 W/m2
18:45 55.3 °F 53 °F 29.74 in SSE 3 mph 5 mph 92% 0.00 in 28 W/m2
18:50 55.3 °F 53 °F 29.74 in SW 3 mph 3 mph 92% 0.00 in 28 W/m2
18:55 55.3 °F 53 °F 29.74 in ESE 2 mph 3 mph 92% 0.00 in 33 W/m2
19:00 55.3 °F 53 °F 29.74 in West 3 mph 3 mph 92% 0.00 in 32 W/m2
19:05 55.3 °F 53 °F 29.74 in SW 2 mph 3 mph 92% 0.00 in 23 W/m2
19:10 55.3 °F 53 °F 29.75 in ESE 2 mph 2 mph 92% 0.00 in 19 W/m2
19:15 55.3 °F 53 °F 29.75 in ESE 2 mph 2 mph 92% 0.00 in 18 W/m2
19:20 55.4 °F 53.1 °F 29.75 in North 2 mph 3 mph 92% 0.00 in 14 W/m2
19:25 55.4 °F 52.8 °F 29.75 in NNW 2 mph 4 mph 91% 0.00 in 11 W/m2
19:30 55.4 °F 52.8 °F 29.75 in NNW 3 mph 4 mph 91% 0.00 in 11 W/m2
19:35 55.5 °F 52.9 °F 29.76 in North 3 mph 4 mph 91% 0.00 in 7 W/m2
19:40 55.5 °F 52.9 °F 29.76 in NNW 3 mph 3 mph 91% 0.00 in 0 W/m2
19:45 55.5 °F 52.9 °F 29.77 in North 3 mph 3 mph 91% 0.00 in 0 W/m2
19:50 55.6 °F 53 °F 29.77 in East 3 mph 3 mph 91% 0.00 in 0 W/m2
19:55 55.5 °F 52.9 °F 29.77 in NNW 2 mph 3 mph 91% 0.00 in 0 W/m2
20:00 55.5 °F 52.9 °F 29.77 in NNW 2 mph 2 mph 91% 0.00 in 0 W/m2
20:05 55.4 °F 52.5 °F 29.77 in SSW 2 mph 2 mph 90% 0.00 in 0 W/m2
20:10 55.5 °F 52.6 °F 29.77 in South 1 mph 1 mph 90% 0.00 in 0 W/m2
20:15 55.5 °F 52.6 °F 29.77 in SSW 1 mph 1 mph 90% 0.00 in 0 W/m2
20:20 55.5 °F 52.3 °F 29.77 in SSW 1 mph 1 mph 89% 0.00 in 0 W/m2
20:25 55.6 °F 52.4 °F 29.78 in SSW 1 mph 2 mph 89% 0.00 in 0 W/m2
20:30 55.8 °F 52.6 °F 29.78 in SSW 2 mph 2 mph 89% 0.00 in 0 W/m2
20:35 55.7 °F 52.5 °F 29.78 in SSW 2 mph 2 mph 89% 0.00 in 0 W/m2
20:40 55.7 °F 52.5 °F 29.78 in SSW 2 mph 3 mph 89% 0.00 in 0 W/m2
20:45 55.9 °F 52.7 °F 29.79 in South 2 mph 3 mph 89% 0.00 in 0 W/m2
20:50 55.8 °F 52.6 °F 29.79 in SSW 2 mph 2 mph 89% 0.00 in 0 W/m2
20:55 55.9 °F 52.1 °F 29.79 in SSW 2 mph 4 mph 87% 0.00 in 0 W/m2
21:00 55.9 °F 52.1 °F 29.79 in SW 3 mph 3 mph 87% 0.00 in 0 W/m2
21:05 56 °F 51.9 °F 29.80 in WSW 3 mph 3 mph 86% 0.00 in 0 W/m2
21:10 55.9 °F 51.8 °F 29.80 in SW 2 mph 2 mph 86% 0.00 in 0 W/m2
21:15 55.9 °F 51.8 °F 29.80 in West 2 mph 2 mph 86% 0.00 in 0 W/m2
21:20 55.9 °F 51.8 °F 29.80 in SW 2 mph 2 mph 86% 0.00 in 0 W/m2
21:25 55.8 °F 51.7 °F 29.80 in WSW 2 mph 2 mph 86% 0.00 in 0 W/m2
21:30 55.8 °F 51.4 °F 29.80 in West 2 mph 2 mph 85% 0.00 in 0 W/m2
Sand Point, Michigan, USA
Compliments of Weather Underground - 2 mb